Regional Weather Roundup
Issued by NWS

Home | Current Version | Previous Version | Text Only | Print | Product List | Glossary Off
Versions: 1 2 3 4 5 6 7 8 9 10 11 12 13 14 15 16 17 18 19 20 21 22 23 24 25 26 27 28 29 30 31 32 33 34 35 36 37 38 39 40 41 42 43 44 45 46 47 48 49 50

238
ASUS43 KMPX 271201
RWRMN
WEATHER ROUNDUP FOR MINNESOTA
NATIONAL WEATHER SERVICE TWIN CITIES/CHANHASSEN MN
700 AM CDT SAT MAY 27 2017


NOTE: "FAIR" INDICATES FEW OR NO CLOUDS BELOW 12,000 FEET WITH NO
SIGNIFICANT WEATHER AND/OR OBSTRUCTIONS TO VISIBILITY. N/A MEANS
CURRENT SKY AND/OR WEATHER CONDITIONS ARE NOT AVAILABLE.

MNZ060>063-068>070-271300-
   Twin Cities Metro

CITY           SKY/WX    TMP DP  RH WIND       PRES   REMARKS
TWIN CITIES    MOSUNNY   57  48  72 SW3       29.89R
6HR MIN TEMP:  55; 6HR MAX TEMP:  62;

ST PAUL        SUNNY     55  53  93 CALM      29.89R
CRYSTAL        SUNNY     55  49  80 CALM      29.88R
BLAINE         SUNNY     55  52  88 CALM      29.88R
LAKEVILLE      SUNNY     55  48  76 CALM      29.88S
EDEN PRAIRIE   SUNNY     56  51  84 W3        29.88R
6HR MIN TEMP:  52; 6HR MAX TEMP:  62;

SOUTH ST PAUL  SUNNY     58  48  70 W3        29.88S
LAKE ELMO      FAIR      52  52 100 CALM      29.89R
$$
MNZ001>005-007-008-013>017-022>024-027-028-271300-
   Northwest Minnesota

CITY           SKY/WX    TMP DP  RH WIND       PRES   REMARKS
BEMIDJI        MOSUNNY   50  43  78 SW5       29.82R
HALLOCK        MOSUNNY   48  43  81 SE6       29.74F
ROSEAU         MOSUNNY   48  43  81 S3        29.76S
WARROAD        PTSUNNY   48  45  87 S6        29.76S
CROOKSTON      SUNNY     50  43  76 S7        29.80S
FOSSTON        SUNNY     50  43  76 S10       29.82R
DETROIT LAKES  CLOUDY    52  45  76 SW5       29.85S
MOORHEAD       MOSUNNY   54  45  71 S6        29.84S
PARK RAPIDS    CLOUDY    49  42  77 CALM      29.84R
MAHNOMEN       FAIR      50  44  78 S9        29.82S
$$
MNZ006-009>011-018-025>026-271300-
   North Central Minnesota

CITY           SKY/WX    TMP DP  RH WIND       PRES   REMARKS
BAUDETTE       CLOUDY    47  43  86 SW5       29.77S
FLAG ISLAND    CLOUDY    52  43  71 SW9       29.73S
INTL FALLS     CLOUDY    48  43  82 SW5       29.78S
6HR MIN TEMP:  43; 6HR MAX TEMP:  52;

WASKISH        CLOUDY    52  46  82 CALM      29.80S
BIG FORK       MOSUNNY   48  46  93 CALM      29.81S
LONGVILLE      CLOUDY    48  46  93 CALM      29.84R
GRAND RAPIDS   CLOUDY    51  46  83 S3        29.85F
CRANE LAKE     CLOUDY    43  43 100 CALM      29.82S
ORR            CLOUDY    46  43  87 CALM      29.79S
COOK           CLOUDY    45  43  93 CALM      29.82S
WALKER         FAIR      48  43  81 W5        29.84R
$$
MNZ012-019>021-037-271300-
   Northeast Minnesota

CITY           SKY/WX    TMP DP  RH WIND       PRES   REMARKS
DULUTH         MOSUNNY   55  46  71 W9        29.84R
6HR MIN TEMP:  47; 6HR MAX TEMP:  55;

ELY            CLOUDY    46  46 100 CALM      29.82R
HIBBING        CLOUDY    44  44 100 CALM      29.83R
EVELETH        CLOUDY    47  45  93 CALM      29.84S
DULUTH HARBOR  SUNNY     52  48  87 S7        29.84S
TWO HARBORS    CLOUDY    57  48  72 NW3       29.81R
SILVER BAY     CLOUDY    46  46 100 CALM      29.80S
GRAND MARAIS     N/A     43  43 100 W6        29.81R
G MARAIS ARPRT MOSUNNY   54  46  76 NW5       29.82R
$$
MNZ029>031-032-039>041-046>048-054>057-064-271300-
   West Central Minnesota

CITY           SKY/WX    TMP DP  RH WIND       PRES   REMARKS
FERGUS FALLS   CLOUDY    52  45  76 S6        29.86R
WHEATON        CLOUDY    54  46  76 SW3       29.89R
MORRIS         CLOUDY    52  48  87 SW6       29.88R
ALEXANDRIA     CLOUDY    52  46  80 SW7       29.89R
ELBOW LAKE     FAIR      50  47  92 CALM      29.88R
WADENA         CLOUDY    48  45  87 CALM      29.86R
GLENWOOD       CLOUDY    52  46  82 SW6       29.89R
APPLETON       CLOUDY    52  48  87 CALM      29.88S
BENSON         PTSUNNY   48  46  93 CALM      29.91R
ORTONVILLE     CLOUDY    54  46  76 SW5       29.88S
MADISON        CLOUDY    54  48  82 CALM      29.89S
WILLMAR        FAIR      52  48  87 CALM      29.91R
$$
MNZ033>034-036-042>043-049>051-058-059-271300-
   Central Minnesota

CITY           SKY/WX    TMP DP  RH WIND       PRES   REMARKS
ST CLOUD       SUNNY     50  50 100 CALM      29.87S
6HR MIN TEMP:  45; 6HR MAX TEMP:  54;

SAUK CENTRE    FAIR      50  45  85 CALM      29.89R
PAYNESVILLE    MOSUNNY   52  52 100 W5        29.89R
AITKIN         MOSUNNY   48  46  93 CALM      29.84S
PINE RIVER     CLOUDY    46  46 100 CALM      29.89S
BRAINERD       PTSUNNY   49  46  90 CALM      29.86S
STAPLES        CLOUDY    50  43  76 CALM      29.86R
LONG PRAIRIE   FAIR      50  45  81 SW5       29.88R
LITTLE FALLS   CLOUDY    46  45  93 CALM      29.87S
LITCHFIELD     CLOUDY    57  50  77 CALM      29.90R
BUFFALO        SUNNY     55  48  76 CALM      29.89R
MAPLE LAKE     SUNNY     56  49  76 CALM      29.89R
HUTCHINSON     MOSUNNY   55  50  86 CALM      29.90R
$$
MNZ037-044-045-052-053-271300-
   East Central Minnesota

CITY           SKY/WX    TMP DP  RH WIND       PRES   REMARKS
PRINCETON      SUNNY     52  50  93 CALM      29.87S
MORA           SUNNY     45  45 100 CALM      29.87F
CAMBRIDGE      SUNNY     55  46  71 CALM      29.85S
RUSH CITY      MOSUNNY   52  48  86 CALM      29.87S
MOOSE LAKE     CLOUDY    46  45  93 CALM      29.84S
HINCKLEY       FAIR      50  48  93 CALM      29.85F
CLOQUET        SUNNY     54  45  71 W6        29.84S
MCGREGOR       MOSUNNY   50  46  87 CALM      29.86S
$$
MNZ071>073-080-081-089-090-097-098-271300-
   Southwest Minnesota

CITY           SKY/WX    TMP DP  RH WIND       PRES   REMARKS
MONTEVIDEO     CLOUDY    54  46  76 W3        29.90R
CANBY          CLOUDY    55  49  82 CALM      29.91R
MARSHALL       CLOUDY    55  50  83 W5        29.90S
REDWOOD FALLS  CLOUDY    55  49  80 CALM      29.89R
OLIVIA         PTSUNNY   54  48  82 CALM      29.89R
PIPESTONE      CLOUDY    55  46  71 CALM      29.92R
WINDOM         MOSUNNY   54  48  82 CALM      29.91R
WORTHINGTON    CLOUDY    53  48  83 CALM      29.92R
JACKSON        MOSUNNY   52  48  87 CALM      29.91S
TRACY          CLOUDY    57  49  75 SW5       29.91R
SLAYTON        CLOUDY    53  47  81 CALM      29.92R
$$
MNZ065>067-074>077-082>085-091>093-271300-
   South Central Minnesota

CITY           SKY/WX    TMP DP  RH WIND       PRES   REMARKS
MANKATO        SUNNY     56  50  80 CALM      29.89F
NEW ULM        MOSUNNY   54  46  76 CALM      29.90R
ST JAMES       SUNNY     54  48  82 CALM      29.92R
FAIRMONT       SUNNY     54  48  80 N6        29.90S
GLENCOE        MOSUNNY   56  52  88 CALM      29.89R
FARIBAULT      SUNNY     55  52  88 CALM      29.89S
OWATONNA       SUNNY     52  48  87 CALM      29.89S
WASECA         SUNNY     52  46  82 CALM      29.90F
ALBERT LEA     SUNNY     55  54  94 CALM      29.89S
$$
MNZ078>079-086>088-094>096-271300-
   Southeast Minnesota

CITY           SKY/WX    TMP DP  RH WIND       PRES   REMARKS
ROCHESTER      SUNNY     56  50  80 W5        29.90R
6HR MIN TEMP:  51; 6HR MAX TEMP:  58;

RED WING       SUNNY     55  52  88 CALM      29.87S
STANTON        SUNNY     54  49  84 SW3       29.88R
DODGE CENTER   SUNNY     55  48  76 W6        29.89R
WINONA         MOSUNNY   55  54  94 CALM      29.87F
AUSTIN         SUNNY     52  50  93 CALM      29.89S
PRESTON          N/A     54  53  96 CALM      29.89S FOG
$$
ABBREVIATIONS USED IN REMARKS
   TC - TEMPERATURES IN CELSIUS
  WCI - WIND CHILL INDEX
   HX - HEAT INDEX
  VSB - VISIBILITY
$$




USA.gov is the U.S. government's official web portal to all federal, state and local government web resources and services.